Regional Weather Roundup
Issued by NWS Cleveland, OH

Home | Current Version | Previous Version | Text Only | Print | Product List | Glossary Off
Versions: 1 2 3 4 5 6 7 8 9 10 11 12 13 14 15 16 17 18 19 20 21 22 23 24 25 26 27 28 29 30 31 32 33 34 35 36 37 38 39 40 41 42 43 44 45 46 47 48 49 50

000
ASUS41 KCLE 231812
RWRCLE
OHIO REGIONAL WEATHER ROUNDUP
NATIONAL WEATHER SERVICE WILMINGTON, OH
100 PM EST MON JAN 23 2017

NOTE: "FAIR" INDICATES FEW OR NO CLOUDS BELOW 12,000 FEET WITH NO
SIGNIFICANT WEATHER AND/OR OBSTRUCTIONS TO VISIBILITY.

OHZ001>008-015>018-024>027-034-035-043-044-231900-
   NORTHWEST OHIO

CITY           SKY/WX    TMP DP  RH WIND       PRES   REMARKS
DEFIANCE       LGT RAIN  41  40  96 NE9       29.64F FOG
FINDLAY        LGT RAIN  42  38  85 N15       29.59F
TOLEDO EXPRESS CLOUDY    41  41 100 NE13      29.64F
TOLEDO EXEC    CLOUDY    39  38  96 NE16G22   29.65F FOG
LIMA           LGT RAIN  41  41 100 N12       29.59F
$$

OHZ009>014-019>023-028>033-038-089-231900-
   NORTHEAST OHIO

CITY           SKY/WX    TMP DP  RH WIND       PRES   REMARKS
CLE-HOPKINS    CLOUDY    43  39  86 N13       29.60F FOG
CLE-LAKEFRONT  FOG       38  37  97 NE17      29.58F VSB 1/2
CUY CO. ARPT   PTSUNNY   48  43  81 NE9       29.59F
LORAIN-ELYRIA  CLOUDY    39  37  92 NE12      29.59F FOG
ASHTABULA      FAIR      44  41  89 N7        29.60F
AKRON-CANTON   LGT RAIN  50  42  74 NE13      29.54F
WOOSTER        CLOUDY    49  45  86 NE10      29.54F
MANSFIELD      CLOUDY    45  44  97 N9        29.55F
YOUNGSTOWN     CLOUDY    49  40  71 E17G23    29.56F
$$

OHZ042-051>053-060>062-070>072-077>081-231900-
  SOUTHWEST OHIO

CITY           SKY/WX    TMP DP  RH WIND       PRES   REMARKS
CINC-COVINGTON CLOUDY    48  46  93 N14       29.54F FOG
CINC-LUNKEN    LGT RAIN  48  47  96 N14       29.55F FOG
HAMILTON       CLOUDY    48  45  89 N13       29.57S
DAYTON         CLOUDY    44  43  96 N13       29.56F FOG
WRIGHT-PAT AFB CLOUDY    46  46 100 N13       29.54F
DAYTON GENERAL CLOUDY    46  44  93 N12       29.54S FOG
WILMINGTON     CLOUDY    49  47  93 N15       29.51S
$$

OHZ036-037-039>041-045>050-054>059-063>069-073>076-082>088-231900-
  CENTRAL AND SOUTHEAST OHIO

CITY           SKY/WX    TMP DP  RH WIND       PRES   REMARKS
COLUMBUS       LGT RAIN  51  47  86 N12       29.50F
OSU AIRPORT    LGT RAIN  49  48  97 N8        29.51F FOG
BOLTON FIELD   CLOUDY    50  48  93 N13       29.52S FOG
RICKENBACK AFB DRIZZLE   50  48  93 N12       29.49F
NEWARK         CLOUDY    50  44  80 NE9       29.50S
MARION         LGT RAIN  46  44  93 N12       29.55F FOG
LANCASTER      LGT RAIN  52  48  86 NE9       29.49F
ZANESVILLE     CLOUDY    49  43  80 NE12      29.50S
NEW PHILLY     CLOUDY    50  42  74 NE13G20   29.52F
$$




USA.gov is the U.S. government's official web portal to all federal, state and local government web resources and services.